Beaufort, NC

9:20 PM EST on December 03, 2016 (GMT -0500)
Piney Island

Weather History for KNBT - May, 2013

Change the Weather History Date:

Monday, May 13, 2013

  Actual Average (KMRH) Record (KMRH)
Temperature  
Mean Temperature 65 °F -  
Max Temperature 69 °F 77 °F 88 °F (1964)
Min Temperature 62 °F 60 °F 48 °F (2008)
Growing Degree Days 15 (Base 50)    
Moisture  
Dew Point 45 °F    
Average Humidity 49    
Maximum Humidity 65    
Minimum Humidity 33    
Precipitation  
Precipitation 0.00 in - - ()
Sea Level Pressure  
Sea Level Pressure 30.05 in    
Wind  
Wind Speed 13 mph (North)    
Max Wind Speed 18 mph    
Max Gust Speed 26 mph    
Visibility 10 miles    
Events Rain    
Averages and records for this station are not official NWS values.
T = Trace of Precipitation, MM = Missing Value Source: NWS Daily Summary

Daily Weather History Graph

Daily Weather History Graph

Search for Another Location

Airport or City:

Trip Planner

Search our weather history database for the weather conditions in past years. The results will help you decide how hot, cold, wet, or windy it might be!

Date:

Astronomy

May. 13, 2013 Rise Set
Actual Time 6:03 AM EDT 8:01 PM EDT
Civil Twilight 5:35 AM EDT 8:29 PM EDT
Nautical Twilight 5:01 AM EDT 9:03 PM EDT
Astronomical Twilight 4:25 AM EDT 9:39 PM EDT
Moon 8:48 AM EDT (5/13) 11:08 PM EDT (5/13)
Length of Visible Light 14h 53m
Length of Day
13h 57m
Waxing Crescent, 12% of the Moon is Illuminated
May 13
Waxing Crescent
May 18
First Quarter
May 25
Full
May 31
Last Quarter
Jun 8
New

Hourly Weather History & Observations

Time (EDT) Temp. Dew Point Humidity Pressure Visibility Wind Dir Wind Speed Gust Speed Precip Events Conditions
12:56 AM 66.9 °F 45.0 °F 45% 30.01 in 10.0 mi North 12.7 mph - N/A   Clear
1:56 AM 66.0 °F 46.0 °F 48% 30.01 in 10.0 mi North 12.7 mph - N/A   Scattered Clouds
2:56 AM 64.9 °F 43.0 °F 45% 30.00 in 10.0 mi North 12.7 mph - N/A   Mostly Cloudy
3:56 AM 64.0 °F 46.9 °F 54% 30.01 in 10.0 mi North 10.4 mph - N/A   Scattered Clouds
4:56 AM 64.0 °F 51.1 °F 63% 30.01 in 10.0 mi North 12.7 mph - N/A   Partly Cloudy
5:56 AM 64.0 °F 52.0 °F 65% 30.02 in 10.0 mi NE 13.8 mph 21.9 mph N/A   Mostly Cloudy
6:56 AM 63.0 °F 50.0 °F 63% 30.04 in 10.0 mi NNE 16.1 mph 23.0 mph N/A   Scattered Clouds
7:56 AM 64.0 °F 48.9 °F 58% 30.06 in 10.0 mi NNE 17.3 mph 23.0 mph N/A   Partly Cloudy
8:56 AM 64.0 °F 48.0 °F 56% 30.06 in 10.0 mi NNE 17.3 mph 24.2 mph N/A   Mostly Cloudy
9:56 AM 64.9 °F 46.9 °F 52% 30.06 in 10.0 mi NNE 18.4 mph 25.3 mph N/A   Clear
10:56 AM 64.9 °F 44.1 °F 47% 30.08 in 10.0 mi NNE 17.3 mph 26.5 mph N/A   Scattered Clouds
11:56 AM 64.0 °F 45.0 °F 50% 30.08 in 10.0 mi NNE 15.0 mph 20.7 mph N/A   Mostly Cloudy
12:56 PM 64.9 °F 45.0 °F 48% 30.08 in 10.0 mi North 13.8 mph 20.7 mph N/A   Mostly Cloudy
1:56 PM 66.0 °F 46.9 °F 50% 30.06 in 10.0 mi NE 13.8 mph 20.7 mph N/A   Partly Cloudy
2:56 PM 66.9 °F 45.0 °F 45% 30.04 in 10.0 mi North 15.0 mph 21.9 mph N/A   Partly Cloudy
4:56 PM 66.9 °F 44.1 °F 44% 30.01 in 10.0 mi North 9.2 mph - N/A   Partly Cloudy
5:56 PM 66.9 °F 43.0 °F 42% 30.01 in 10.0 mi North 9.2 mph - N/A   Scattered Clouds
6:56 PM 68.0 °F 37.9 °F 33% 30.02 in 10.0 mi NW 18.4 mph 24.2 mph N/A   Scattered Clouds
7:56 PM 64.9 °F 37.9 °F 37% 30.05 in 10.0 mi NNW 16.1 mph - N/A   Partly Cloudy
8:56 PM 64.0 °F 39.0 °F 40% 30.09 in 10.0 mi North 10.4 mph - N/A   Clear
9:56 PM 62.1 °F 37.9 °F 41% 30.12 in 10.0 mi North 9.2 mph - N/A   Clear
10:56 PM 62.1 °F 42.1 °F 48% 30.14 in 10.0 mi North 4.6 mph - N/A   Mostly Cloudy
11:56 PM 62.1 °F 39.0 °F 43% 30.16 in 10.0 mi North 8.1 mph 18.4 mph 0.00 in Rain Light Rain